This is the latest recevied weather packets stored in our database for station/object KJ4EWA. If no packets are shown the sender has not sent any weather packets the latest 10 day(s).
| Time | Temp. | Humidity | Pressure | Rain* | Wind** | Luminosity | Snow |
|---|---|---|---|---|---|---|---|
| 1777761168 | 23.33° C | 57% | 1016.8 hPa | 0 mm | - | 196 W/m² | - |
| 1777760866 | 23.89° C | 57% | 1016.7 hPa | 0 mm | - | 187 W/m² | - |
| 1777760562 | 23.33° C | 62% | 1016.7 hPa | 0 mm | - | 217 W/m² | - |
| 1777760257 | 23.89° C | 58% | 1016.7 hPa | 0 mm | - | 221 W/m² | - |
| 1777759949 | 23.33° C | 55% | 1016.7 hPa | 0 mm | - | 253 W/m² | - |
| 1777759645 | 23.89° C | 54% | 1016.6 hPa | 0 mm | - | 247 W/m² | - |
| 1777759342 | 23.33° C | 62% | 1016.3 hPa | 0 mm | - | 274 W/m² | - |
| 1777759039 | 23.89° C | 55% | 1016.4 hPa | 0 mm | - | 274 W/m² | - |
| 1777758736 | 24.44° C | 59% | 1016.2 hPa | 0 mm | - | 317 W/m² | - |
| 1777758433 | 23.89° C | 68% | 1016 hPa | 0 mm | - | 316 W/m² | - |
| 1777758130 | 23.33° C | 59% | 1016.4 hPa | 0 mm | - | 316 W/m² | - |
| 1777757827 | 22.78° C | 67% | 1016.2 hPa | 0 mm | - | 103 W/m² | - |
| 1777757524 | 23.89° C | 65% | 1015.9 hPa | 0 mm | - | 92 W/m² | - |
| 1777757223 | 23.89° C | 58% | 1015.9 hPa | 0 mm | - | 405 W/m² | - |
| 1777756921 | 23.89° C | 63% | 1016.3 hPa | 0 mm | - | 414 W/m² | - |
| 1777756616 | 23.89° C | 64% | 1016.1 hPa | 0 mm | - | 399 W/m² | - |
| 1777756314 | 22.78° C | 65% | 1016.2 hPa | 0.51 mm | - | 93 W/m² | - |
| 1777756010 | 22.78° C | 72% | 1016.2 hPa | 0.51 mm | - | 111 W/m² | - |
| 1777755708 | 24.44° C | 67% | 1016.2 hPa | 0 mm | - | 462 W/m² | - |
| 1777755405 | 25° C | 68% | 1016 hPa | 0 mm | - | 458 W/m² | - |
| 1777755101 | 25° C | 68% | 1016.3 hPa | 0 mm | - | 531 W/m² | - |
| 1777754798 | 23.89° C | 63% | 1016.1 hPa | 0 mm | - | 587 W/m² | - |
| 1777754496 | 25° C | 64% | 1016.4 hPa | 0 mm | - | 185 W/m² | - |
| 1777754192 | 23.89° C | 71% | 1016 hPa | 0 mm | - | 527 W/m² | - |
| 1777753891 | 23.89° C | 66% | 1016.1 hPa | 0.51 mm | - | 481 W/m² | - |
* Rain latest hour (hover to see other rain measurements)
** Current wind speed in m/s (hover to see current wind gust speed)